SCP
0 0 0 0 0 0 0 0 0 0 0 0 0 0 0 0 0 0 0 0 0 0 0 0 0 0 0 0 0 0 0 0 0 -0 0 0 0 0 0 0 0 0 0
0 0 0 0 0 0 0 0 0 0 0 0 0 0 0 0 0 0 0 0 0 0 0 0 0 0 0 0 0 0 0 0 0 -0 -0 0 0 0 0 0 0 0 0
0 0 0 0 0 0 0 0 0 0 0 0 0 0 0 0 0 0 0 0 0 0 0 0 0 0 0 0 0 0 0 0 0 0 -0 -0 0 0 0 0 0 0 0
0 0 0 0 0 0 0 0 0 0 0 0 0 0 0 0 0 0 0 0 0 0 0 0 0 0 0 0 0 0 0 0 0 0 0 0 0 -0 -0 0 0 0 0
0 0 0 0 0 0 0 0 0 0 0 0 0 0 0 0 0 0 0 0 0 0 0 0 0 0 0 0 0 0 0 0 0 0 0 0 0 0 0 0 0 0 0
0 0 0 0 0 0 0 0 0 0 0 0 0 0 0 0 0 0 0 0 0 0 0 0 0 0 0 0 0 0 0 0 0 0 0 0 0 0 0 0 0 0 0
0 0 0 0 0 0 0 0 0 0 0 0 0 0 0 0 0 0 0 0 0 0 0 0 0 0 0 0 0 0 0 0 0 0 0 0 0 0 0 0 0 0 0
0 0 0 0 0 0 0 0 0 0 0 0 0 0 0 0 0 0 0 0 0 0 0 0 0 0 0 0 0 0 0 0 0 0 0 0 0 0 0 0 0 0 -0
0 0 0 0 0 0 0 0 0 0 0 0 0 0 0 0 0 0 0 0 0 0 0 0 0 0 0 0 0 0 0 0 0 0 0 0 0 0 0 0 0 0 0
0 0 0 0 0 0 0 0 0 0 0 0 0 0 0 0 0 0 0 0 0 0 0 0 0 0 0 0 0 0 0 0 0 0 0 0 0 0 0 0 0 0 0
-0 0 0 0 0 0 0 0 0 0 0 0 0 0 0 0 0 0 0 0 0 0 0 0 0 0 0 0 0 0 0 0 0 0 0 0 0 0 0 0 0 0 0
-0 0 0 0 0 0 0 0 0 0 0 0 0 0 0 0 0 0 0 0 0 0 0 0 0 0 0 0 0 0 0 0 0 0 0 0 0 0 0 0 0 0 0
0 0 0 0 0 0 0 0 0 0 0 0 0 0 0 0 0 0 0 0 0 0 0 0 0 0 0 0 0 0 0 0 0 0 0 0 0 0 0 0 0 0 0
0 0 0 0 -0 0 0 0 0 0 0 0 0 0 0 0 0 0 0 0 0 0 0 0 0 0 0 0 0 0 0 0 0 0 0 0 0 0 0 0 0 0 0
0 0 0 0 0 0 0 0 0 0 0 0 0 0 0 0 0 0 0 0 0 0 0 0 0 0 0 0 0 0 0 0 0 0 0 0 0 0 0 0 0 0 0
-0 0 0 0 0 0 0 0 0 0 0 0 0 0 0 0 0 0 0 0 0 0 0 0 0 0 0 0 0 0 0 0 0 0 0 0 0 0 0 0 0 0 0
0 0 0 0 0 0 0 0 0 0 0 0 0 0 0 0 0 0 0 0 0 0 0 0 0 0 0 0 0 0 0 0 0 0 0 0 0 0 0 0 0 0 0
0 0 0 0 0 0 0 0 0 0 0 0 0 0 0 0 0 0 0 0 0 0 0 0 0 0 0 0 0 0 0 0 0 0 0 0 0 0 0 0 0 0 0
0 0 0 0 0 0 0 0 0 0 0 0 0 0 0 0 0 0 0 0 0 0 0 0 0 0 0 0 0 0 0 0 0 0 0 0 0 0 0 0 0 0 0
0 0 0 0 0 0 0 0 0 0 0 0 0 0 0 0 0 0 0 0 0 0 0 0 0 0 0 0 0 0 0 0 0 0 0 0 0 0 0 0 0 0 0
0 0 0 0 0 0 0 0 0 0 0 0 0 0 0 0 0 0 0 0 0 0 0 0 0 0 0 0 0 0 0 0 0 0 0 0 0 0 0 0 0 0 0
0 0 0 0 0 0 0 0 0 0 0 0 0 0 0 0 0 0 0 0 0 0 0 0 0 0 0 0 0 0 0 0 0 0 0 0 0 0 0 0 0 0 0
-0 -0 -0 0 0 0 0 0 0 0 0 0 0 0 0 0 0 0 0 0 0 0 0 0 0 0 0 0 0 0 0 0 0 0 0 0 0 0 0 0 0 0 0
-0 -0 -0 -0 -0 -0 -0 0 0 0 0 0 0 0 0 0 0 0 0 0 0 0 0 0 0 0 0 0 0 0 0 0 0 0 0 0 0 0 0 0 0 0 0
-0 -0 -0 -0 -0 -0 0 0 0 0 0 0 0 0 0 0 0 0 0 0 0 0 0 0 0 0 0 0 0 0 0 0 0 0 0 0 0 0 0 0 0 0 0
-0 -0 -0 -0 0 0 0 0 0 0 0 0 0 0 0 0 0 0 0 0 0 0 0 0 0 0 0 0 0 0 0 0 0 0 0 0 0 0 0 0 0 0 0
Wind_Speed_500mb
107 93 90 89 88 87 90 93 90 88 87 87 84 85 86 85 84 79 72 70 66 63 60 57 52 47 43 40 38 35 34 35 39 43 41 33 16 10 3 37 16 30 19
102 105 108 96 86 85 93 99 99 94 89 91 88 89 86 86 84 79 77 75 72 69 66 62 56 50 47 44 39 35 34 35 35 36 43 20 26 10 41 20 36 12 37
104 106 102 91 82 79 85 98 100 97 93 90 91 92 87 84 85 88 86 84 78 73 70 64 60 55 51 45 40 36 35 34 33 30 22 14 11 54 21 43 27 51 37
99 104 102 90 81 78 78 89 99 98 93 92 92 97 96 92 93 93 92 87 81 77 74 69 64 59 54 49 43 39 38 37 34 31 29 27 32 26 35 44 56 54 62
90 92 91 78 67 73 74 80 95 98 94 93 93 94 96 91 90 90 89 86 82 80 76 72 67 65 60 55 50 44 41 39 36 33 31 31 33 34 33 63 72 73 71
80 91 88 62 60 65 71 82 95 99 95 96 93 93 92 93 93 92 88 85 85 83 80 76 73 69 64 59 52 47 43 40 37 35 34 34 35 37 35 46 66 70 77
79 91 77 47 55 67 74 82 93 100 97 95 92 93 93 91 89 90 87 85 84 89 88 81 78 74 67 61 55 50 45 41 38 37 37 38 40 39 41 50 64 69 84
89 82 66 42 55 65 73 81 89 96 97 96 95 95 95 95 91 90 88 85 85 84 79 78 77 73 69 65 60 54 46 41 40 40 40 39 42 42 43 45 54 79 77
79 61 51 50 51 55 66 75 85 93 95 96 97 100 99 99 95 91 87 86 85 82 78 75 76 74 72 68 62 55 48 44 44 44 44 44 44 43 43 43 46 50 57
57 62 54 52 45 50 59 66 77 87 90 95 98 100 101 102 102 99 94 87 85 82 79 76 78 77 74 69 64 58 52 48 47 46 46 46 46 46 44 45 48 51 60
60 44 42 40 41 44 47 55 64 82 90 94 96 99 102 106 106 105 101 97 90 83 77 77 81 82 77 73 67 60 56 52 49 48 48 47 47 45 45 49 52 56 62
64 46 37 32 38 38 45 48 55 70 75 86 97 98 100 101 107 107 104 101 96 89 79 77 80 81 79 74 69 65 59 53 51 50 48 46 47 46 47 52 56 61 65
67 48 31 35 52 57 59 61 69 75 82 86 91 98 101 100 103 104 103 102 99 92 83 80 82 83 82 78 73 67 62 56 52 50 49 46 45 48 49 53 60 64 69
71 79 91 101 75 66 69 71 78 77 77 83 90 96 98 97 98 102 102 100 98 92 86 84 84 84 84 81 76 71 64 59 53 51 48 45 47 48 50 54 59 64 69
64 70 79 85 90 83 73 68 71 82 89 89 94 99 95 97 98 100 97 97 96 91 86 85 85 86 87 85 80 72 65 59 52 49 45 46 45 49 49 54 57 61 65
58 74 88 84 92 89 94 97 93 92 94 100 100 101 102 99 101 97 96 95 92 89 86 85 87 89 89 84 79 69 61 58 52 46 43 44 50 49 48 50 51 49 54
54 54 58 69 80 91 90 84 81 80 90 93 98 101 104 100 97 93 92 92 92 88 86 88 88 89 87 80 74 68 62 57 50 44 44 52 48 46 50 52 54 48 52
77 76 76 64 58 57 61 70 70 72 75 80 88 93 94 95 92 89 88 88 90 87 88 90 89 87 83 80 75 68 62 54 45 43 52 47 45 43 50 51 53 58 63
75 83 83 75 72 65 60 48 40 50 63 74 78 80 84 85 85 85 85 84 87 89 91 90 88 87 84 84 77 69 59 49 42 51 48 44 39 43 43 43 52 61 71
77 86 86 81 74 73 68 60 55 40 40 53 66 70 69 74 78 78 79 80 83 84 84 84 85 84 81 80 73 67 55 45 53 49 43 34 37 40 36 41 53 68 68
72 79 81 78 77 71 69 66 54 44 37 37 47 50 54 61 69 71 74 75 78 82 84 83 82 81 79 74 70 66 51 58 53 47 36 29 31 34 33 42 50 57 56
71 76 86 86 75 69 67 63 53 46 32 33 37 35 41 52 60 63 67 70 79 81 83 81 84 86 81 77 73 60 63 60 52 42 29 27 26 23 32 40 45 51 53
67 68 76 86 87 72 58 59 46 51 49 39 42 42 34 45 53 59 65 72 77 83 85 87 89 90 86 80 73 64 67 59 51 36 30 25 17 16 26 32 39 45 52
81 83 83 85 84 73 72 71 61 54 63 60 55 56 61 54 54 58 66 73 80 87 91 95 97 91 87 81 71 70 58 52 43 32 25 20 14 18 23 27 33 42 50
81 74 70 83 91 82 81 87 81 70 70 73 75 70 69 71 69 71 74 76 84 90 97 101 99 94 92 78 69 60 54 44 37 30 24 16 16 21 21 26 35 43 51
94 95 96 94 93 84 82 86 70 76 72 73 82 85 76 77 79 81 80 80 88 90 91 89 90 87 79 74 63 56 45 38 33 25 18 15 20 22 24 30 38 42 50
Wind_Direction_500mb
266 264 261 259 257 251 247 243 238 236 229 225 225 226 229 229 230 231 233 233 234 236 237 239 241 244 252 259 266 276 288 298 305 310 312 321 306 286 202 330 335 325 345
270 268 266 266 261 256 251 242 237 236 231 228 228 230 232 232 234 235 235 235 235 235 236 238 240 241 246 253 263 273 285 293 303 315 325 329 317 254 317 306 325 328 335
267 268 268 269 265 252 246 243 238 235 230 227 225 228 231 233 233 233 234 234 234 234 236 237 239 241 245 250 258 268 277 286 297 309 321 327 308 317 314 315 318 321 321
266 267 268 267 260 257 250 241 236 233 229 228 228 228 230 229 231 233 234 234 233 235 236 237 238 240 244 248 253 259 268 277 286 296 303 301 301 314 312 307 312 317 318
272 272 269 266 261 252 248 242 233 231 228 229 231 230 232 234 236 237 236 236 236 236 237 238 238 239 241 244 248 255 263 271 278 286 291 292 296 294 286 300 313 314 318
272 274 276 263 252 242 239 238 230 228 227 229 231 232 232 235 235 236 237 236 237 237 237 237 238 238 239 243 248 253 259 266 272 277 284 289 291 293 290 287 298 305 313
267 270 274 254 230 230 231 232 229 226 225 229 231 231 232 235 237 238 239 238 236 235 236 235 236 236 238 240 243 249 257 266 273 278 281 285 288 289 290 293 302 305 309
271 273 267 246 246 231 233 233 228 226 227 230 231 231 231 234 236 239 239 241 242 241 240 238 237 237 237 237 239 244 250 260 269 274 278 278 283 286 291 296 303 310 311
277 272 254 240 244 231 232 235 232 230 230 234 232 232 232 234 235 238 239 241 243 243 241 241 240 237 236 237 239 242 246 253 261 268 271 276 280 283 289 294 298 301 303
305 274 251 241 235 237 236 236 235 238 238 237 236 236 237 238 238 239 240 240 244 243 240 239 238 235 236 237 238 240 244 249 255 261 265 272 276 281 288 292 295 295 296
317 306 264 248 244 241 245 242 241 241 239 241 241 241 242 242 242 243 244 243 244 245 241 237 235 235 236 237 236 238 243 248 254 260 262 269 275 283 290 292 293 294 295
311 285 262 251 251 255 252 255 253 247 247 244 243 244 245 246 246 246 246 246 245 243 241 236 234 235 237 237 238 239 243 246 252 257 262 269 276 283 287 291 293 294 294
294 287 271 268 285 278 267 264 265 259 252 244 245 245 247 248 248 248 248 247 245 242 239 235 234 235 235 236 236 240 242 246 251 255 262 270 276 282 286 290 293 294 294
280 278 281 288 292 285 273 280 268 255 259 255 253 251 250 251 250 248 247 246 245 240 237 236 235 234 234 234 235 237 241 245 247 252 260 269 276 283 287 291 293 293 294
278 280 282 281 284 279 277 279 273 276 271 261 255 252 253 252 249 247 247 245 243 241 238 234 232 231 231 232 233 236 239 243 246 251 260 269 282 282 289 292 294 294 297
278 280 276 272 272 273 278 276 273 274 269 260 257 255 251 251 248 246 243 241 239 236 233 231 231 230 230 231 234 236 239 242 245 252 261 276 278 286 288 292 289 283 287
4 353 324 303 293 284 283 279 280 278 270 265 258 251 250 249 247 244 240 237 235 232 229 228 228 229 230 231 234 236 239 241 245 252 268 268 276 286 292 289 289 289 287
348 347 349 352 343 314 288 279 273 269 267 264 259 254 250 248 244 240 237 235 232 229 227 227 227 227 227 229 232 235 238 239 246 258 262 268 277 287 288 295 298 301 301
330 331 335 338 341 339 341 318 294 282 269 264 259 255 249 244 241 236 233 231 228 225 225 226 227 227 225 226 228 231 232 236 247 257 262 269 283 285 294 297 300 300 299
331 326 327 330 333 337 337 335 334 312 291 272 261 252 246 244 241 237 233 230 228 228 225 225 225 227 225 224 226 227 227 236 246 252 259 273 287 296 295 301 296 292 303
321 321 319 319 322 329 328 326 322 331 324 299 279 267 256 246 241 237 232 229 224 222 222 222 225 225 222 222 223 226 228 236 239 242 251 268 278 288 296 295 295 300 305
317 318 315 316 316 316 321 319 319 314 315 316 302 278 267 255 245 237 233 226 224 221 221 220 219 220 219 219 222 225 234 234 234 241 247 253 268 294 302 303 308 311 311
314 311 309 310 313 313 309 305 313 310 300 288 289 294 284 263 251 242 234 226 224 223 220 218 218 216 215 215 219 222 230 233 231 231 234 248 265 288 303 309 314 319 321
314 312 310 308 307 306 305 298 299 296 294 282 275 274 276 272 257 246 239 235 230 225 222 218 214 214 214 213 213 217 216 220 225 220 228 235 261 290 304 311 323 326 329
309 303 299 297 295 296 300 297 294 290 288 284 274 265 258 252 248 245 245 242 239 235 229 222 216 213 213 216 220 221 220 218 220 214 218 238 262 279 304 322 327 329 333
306 304 303 300 298 298 288 285 294 293 288 280 276 266 257 252 245 239 235 231 231 228 228 231 218 216 218 216 208 209 216 212 216 212 219 246 276 297 319 331 330 336 335
Wind_Speed_850mb
107 93 90 89 88 87 90 93 90 88 87 87 84 85 86 85 84 79 72 70 66 63 60 57 52 47 43 40 38 35 34 35 39 43 41 33 16 10 3 37 16 30 19
102 105 108 96 86 85 93 99 99 94 89 91 88 89 86 86 84 79 77 75 72 69 66 62 56 50 47 44 39 35 34 35 35 36 43 20 26 10 41 20 36 12 37
104 106 102 91 82 79 85 98 100 97 93 90 91 92 87 84 85 88 86 84 78 73 70 64 60 55 51 45 40 36 35 34 33 30 22 14 11 54 21 43 27 51 37
99 104 102 90 81 78 78 89 99 98 93 92 92 97 96 92 93 93 92 87 81 77 74 69 64 59 54 49 43 39 38 37 34 31 29 27 32 26 35 44 56 54 62
90 92 91 78 67 73 74 80 95 98 94 93 93 94 96 91 90 90 89 86 82 80 76 72 67 65 60 55 50 44 41 39 36 33 31 31 33 34 33 63 72 73 71
80 91 88 62 60 65 71 82 95 99 95 96 93 93 92 93 93 92 88 85 85 83 80 76 73 69 64 59 52 47 43 40 37 35 34 34 35 37 35 46 66 70 77
79 91 77 47 55 67 74 82 93 100 97 95 92 93 93 91 89 90 87 85 84 89 88 81 78 74 67 61 55 50 45 41 38 37 37 38 40 39 41 50 64 69 84
89 82 66 42 55 65 73 81 89 96 97 96 95 95 95 95 91 90 88 85 85 84 79 78 77 73 69 65 60 54 46 41 40 40 40 39 42 42 43 45 54 79 77
79 61 51 50 51 55 66 75 85 93 95 96 97 100 99 99 95 91 87 86 85 82 78 75 76 74 72 68 62 55 48 44 44 44 44 44 44 43 43 43 46 50 57
57 62 54 52 45 50 59 66 77 87 90 95 98 100 101 102 102 99 94 87 85 82 79 76 78 77 74 69 64 58 52 48 47 46 46 46 46 46 44 45 48 51 60
60 44 42 40 41 44 47 55 64 82 90 94 96 99 102 106 106 105 101 97 90 83 77 77 81 82 77 73 67 60 56 52 49 48 48 47 47 45 45 49 52 56 62
64 46 37 32 38 38 45 48 55 70 75 86 97 98 100 101 107 107 104 101 96 89 79 77 80 81 79 74 69 65 59 53 51 50 48 46 47 46 47 52 56 61 65
67 48 31 35 52 57 59 61 69 75 82 86 91 98 101 100 103 104 103 102 99 92 83 80 82 83 82 78 73 67 62 56 52 50 49 46 45 48 49 53 60 64 69
71 79 91 101 75 66 69 71 78 77 77 83 90 96 98 97 98 102 102 100 98 92 86 84 84 84 84 81 76 71 64 59 53 51 48 45 47 48 50 54 59 64 69
64 70 79 85 90 83 73 68 71 82 89 89 94 99 95 97 98 100 97 97 96 91 86 85 85 86 87 85 80 72 65 59 52 49 45 46 45 49 49 54 57 61 65
58 74 88 84 92 89 94 97 93 92 94 100 100 101 102 99 101 97 96 95 92 89 86 85 87 89 89 84 79 69 61 58 52 46 43 44 50 49 48 50 51 49 54
54 54 58 69 80 91 90 84 81 80 90 93 98 101 104 100 97 93 92 92 92 88 86 88 88 89 87 80 74 68 62 57 50 44 44 52 48 46 50 52 54 48 52
77 76 76 64 58 57 61 70 70 72 75 80 88 93 94 95 92 89 88 88 90 87 88 90 89 87 83 80 75 68 62 54 45 43 52 47 45 43 50 51 53 58 63
75 83 83 75 72 65 60 48 40 50 63 74 78 80 84 85 85 85 85 84 87 89 91 90 88 87 84 84 77 69 59 49 42 51 48 44 39 43 43 43 52 61 71
77 86 86 81 74 73 68 60 55 40 40 53 66 70 69 74 78 78 79 80 83 84 84 84 85 84 81 80 73 67 55 45 53 49 43 34 37 40 36 41 53 68 68
72 79 81 78 77 71 69 66 54 44 37 37 47 50 54 61 69 71 74 75 78 82 84 83 82 81 79 74 70 66 51 58 53 47 36 29 31 34 33 42 50 57 56
71 76 86 86 75 69 67 63 53 46 32 33 37 35 41 52 60 63 67 70 79 81 83 81 84 86 81 77 73 60 63 60 52 42 29 27 26 23 32 40 45 51 53
67 68 76 86 87 72 58 59 46 51 49 39 42 42 34 45 53 59 65 72 77 83 85 87 89 90 86 80 73 64 67 59 51 36 30 25 17 16 26 32 39 45 52
81 83 83 85 84 73 72 71 61 54 63 60 55 56 61 54 54 58 66 73 80 87 91 95 97 91 87 81 71 70 58 52 43 32 25 20 14 18 23 27 33 42 50
81 74 70 83 91 82 81 87 81 70 70 73 75 70 69 71 69 71 74 76 84 90 97 101 99 94 92 78 69 60 54 44 37 30 24 16 16 21 21 26 35 43 51
94 95 96 94 93 84 82 86 70 76 72 73 82 85 76 77 79 81 80 80 88 90 91 89 90 87 79 74 63 56 45 38 33 25 18 15 20 22 24 30 38 42 50
Wind_Direction_850mb
266 264 261 259 257 251 247 243 238 236 229 225 225 226 229 229 230 231 233 233 234 236 237 239 241 244 252 259 266 276 288 298 305 310 312 321 306 286 202 330 335 325 345
270 268 266 266 261 256 251 242 237 236 231 228 228 230 232 232 234 235 235 235 235 235 236 238 240 241 246 253 263 273 285 293 303 315 325 329 317 254 317 306 325 328 335
267 268 268 269 265 252 246 243 238 235 230 227 225 228 231 233 233 233 234 234 234 234 236 237 239 241 245 250 258 268 277 286 297 309 321 327 308 317 314 315 318 321 321
266 267 268 267 260 257 250 241 236 233 229 228 228 228 230 229 231 233 234 234 233 235 236 237 238 240 244 248 253 259 268 277 286 296 303 301 301 314 312 307 312 317 318
272 272 269 266 261 252 248 242 233 231 228 229 231 230 232 234 236 237 236 236 236 236 237 238 238 239 241 244 248 255 263 271 278 286 291 292 296 294 286 300 313 314 318
272 274 276 263 252 242 239 238 230 228 227 229 231 232 232 235 235 236 237 236 237 237 237 237 238 238 239 243 248 253 259 266 272 277 284 289 291 293 290 287 298 305 313
267 270 274 254 230 230 231 232 229 226 225 229 231 231 232 235 237 238 239 238 236 235 236 235 236 236 238 240 243 249 257 266 273 278 281 285 288 289 290 293 302 305 309
271 273 267 246 246 231 233 233 228 226 227 230 231 231 231 234 236 239 239 241 242 241 240 238 237 237 237 237 239 244 250 260 269 274 278 278 283 286 291 296 303 310 311
277 272 254 240 244 231 232 235 232 230 230 234 232 232 232 234 235 238 239 241 243 243 241 241 240 237 236 237 239 242 246 253 261 268 271 276 280 283 289 294 298 301 303
305 274 251 241 235 237 236 236 235 238 238 237 236 236 237 238 238 239 240 240 244 243 240 239 238 235 236 237 238 240 244 249 255 261 265 272 276 281 288 292 295 295 296
317 306 264 248 244 241 245 242 241 241 239 241 241 241 242 242 242 243 244 243 244 245 241 237 235 235 236 237 236 238 243 248 254 260 262 269 275 283 290 292 293 294 295
311 285 262 251 251 255 252 255 253 247 247 244 243 244 245 246 246 246 246 246 245 243 241 236 234 235 237 237 238 239 243 246 252 257 262 269 276 283 287 291 293 294 294
294 287 271 268 285 278 267 264 265 259 252 244 245 245 247 248 248 248 248 247 245 242 239 235 234 235 235 236 236 240 242 246 251 255 262 270 276 282 286 290 293 294 294
280 278 281 288 292 285 273 280 268 255 259 255 253 251 250 251 250 248 247 246 245 240 237 236 235 234 234 234 235 237 241 245 247 252 260 269 276 283 287 291 293 293 294
278 280 282 281 284 279 277 279 273 276 271 261 255 252 253 252 249 247 247 245 243 241 238 234 232 231 231 232 233 236 239 243 246 251 260 269 282 282 289 292 294 294 297
278 280 276 272 272 273 278 276 273 274 269 260 257 255 251 251 248 246 243 241 239 236 233 231 231 230 230 231 234 236 239 242 245 252 261 276 278 286 288 292 289 283 287
4 353 324 303 293 284 283 279 280 278 270 265 258 251 250 249 247 244 240 237 235 232 229 228 228 229 230 231 234 236 239 241 245 252 268 268 276 286 292 289 289 289 287
348 347 349 352 343 314 288 279 273 269 267 264 259 254 250 248 244 240 237 235 232 229 227 227 227 227 227 229 232 235 238 239 246 258 262 268 277 287 288 295 298 301 301
330 331 335 338 341 339 341 318 294 282 269 264 259 255 249 244 241 236 233 231 228 225 225 226 227 227 225 226 228 231 232 236 247 257 262 269 283 285 294 297 300 300 299
331 326 327 330 333 337 337 335 334 312 291 272 261 252 246 244 241 237 233 230 228 228 225 225 225 227 225 224 226 227 227 236 246 252 259 273 287 296 295 301 296 292 303
321 321 319 319 322 329 328 326 322 331 324 299 279 267 256 246 241 237 232 229 224 222 222 222 225 225 222 222 223 226 228 236 239 242 251 268 278 288 296 295 295 300 305
317 318 315 316 316 316 321 319 319 314 315 316 302 278 267 255 245 237 233 226 224 221 221 220 219 220 219 219 222 225 234 234 234 241 247 253 268 294 302 303 308 311 311
314 311 309 310 313 313 309 305 313 310 300 288 289 294 284 263 251 242 234 226 224 223 220 218 218 216 215 215 219 222 230 233 231 231 234 248 265 288 303 309 314 319 321
314 312 310 308 307 306 305 298 299 296 294 282 275 274 276 272 257 246 239 235 230 225 222 218 214 214 214 213 213 217 216 220 225 220 228 235 261 290 304 311 323 326 329
309 303 299 297 295 296 300 297 294 290 288 284 274 265 258 252 248 245 245 242 239 235 229 222 216 213 213 216 220 221 220 218 220 214 218 238 262 279 304 322 327 329 333
306 304 303 300 298 298 288 285 294 293 288 280 276 266 257 252 245 239 235 231 231 228 228 231 218 216 218 216 208 209 216 212 216 212 219 246 276 297 319 331 330 336 335